DW6610 Weather Reports


time (UTC)temp
F
wind
direction
speed
knots
gust
knots
rain 1hr
in
rain 24hr
in
rain mn
in
humidity
%
barometer
mb
20260510041053 59 0 0.0 0.9 0.00 0.00 0.00 91 1013.6
20260510040551 59 0 0.0 0.9 0.00 0.00 0.00 90 1013.7
20260510040053 59 0 0.0 0.0 0.00 0.00 0.00 90 1013.6
20260510035548 59 0 0.0 0.0 0.00 0.00 0.00 89 1013.7
20260510035051 60 0 0.0 0.0 0.00 0.00 0.00 88 1013.6
20260510034554 60 0 0.0 0.0 0.00 0.00 0.00 88 1013.6
20260510034051 60 0 0.0 0.0 0.00 0.00 0.00 87 1013.5
20260510033552 60 0 0.0 0.9 0.00 0.00 0.00 86 1013.6
20260510033059 61 0 0.0 0.9 0.00 0.00 0.00 85 1013.6
20260510032551 61 0 0.0 0.9 0.00 0.00 0.00 85 1013.6
20260510032054 61 0 0.0 0.9 0.00 0.00 0.00 84 1013.6
20260510031601 61 0 0.0 0.9 0.00 0.00 0.00 84 1013.6
20260510031052 61 0 0.0 0.0 0.00 0.00 0.00 83 1013.6
20260510030551 62 0 0.0 0.0 0.00 0.00 0.00 82 1013.6
20260510030058 62 0 0.0 0.0 0.00 0.00 0.00 81 1013.6
20260510025551 62 0 0.0 0.9 0.00 0.00 0.00 80 1013.5
20260510025050 62 0 0.0 0.9 0.00 0.00 0.00 79 1013.5
20260510024603 63 0 0.0 0.9 0.00 0.00 0.00 79 1013.5
20260510024051 63 0 0.0 0.9 0.00 0.00 0.00 78 1013.5
20260510023551 63 0 0.0 0.9 0.00 0.00 0.00 77 1013.4
20260510023054 64 0 0.0 0.9 0.00 0.00 0.00 77 1013.2
20260510022555 64 0 0.0 0.0 0.00 0.00 0.00 77 1013.1
20260510022050 64 0 0.0 0.9 0.00 0.00 0.00 77 1013.0
20260510021559 65 0 0.0 0.9 0.00 0.00 0.00 77 1013.0
20260510021054 65 0 0.0 0.9 0.00 0.00 0.00 78 1012.9
20260510020550 65 0 0.0 0.0 0.00 0.00 0.00 77 1012.9
20260510020100 66 0 0.0 0.0 0.00 0.00 0.00 76 1012.8
20260510015551 66 0 0.0 0.9 0.00 0.00 0.00 75 1012.7
20260510015050 67 0 0.0 0.9 0.00 0.00 0.00 74 1012.6
20260510014554 68 0 0.0 0.9 0.00 0.00 0.00 72 1012.4
20260510014050 68 0 0.0 0.9 0.00 0.00 0.00 66 1012.4
20260510013551 69 0 0.0 0.9 0.00 0.00 0.00 64 1012.3
20260510013108 69 0 0.0 0.9 0.00 0.00 0.00 61 1012.2
20260510012552 69 119 0.0 0.9 0.00 0.00 0.00 63 1012.2
20260510012051 69 0 0.0 0.0 0.00 0.00 0.00 64 1012.1
20260510011557 70 0 0.0 0.0 0.00 0.00 0.00 65 1012.0
20260510011053 70 0 0.0 0.0 0.00 0.00 0.00 67 1012.0
20260510010550 71 0 0.0 0.0 0.00 0.00 0.00 66 1012.0
20260510010112 72 0 0.0 0.0 0.00 0.00 0.00 63 1011.9
20260510005550 72 0 0.0 0.0 0.00 0.00 0.00 56 1011.8
20260510005051 73 0 0.0 0.0 0.00 0.00 0.00 56 1011.7
20260510004559 74 0 0.0 0.0 0.00 0.00 0.00 55 1011.7
20260510004050 75 0 0.0 0.0 0.00 0.00 0.00 51 1011.7
20260510003550 76 0 0.0 0.0 0.00 0.00 0.00 48 1011.6
20260510003055 77 0 0.0 0.0 0.00 0.00 0.00 48 1011.5
20260510002553 78 0 0.0 0.9 0.00 0.00 0.00 47 1011.5
20260510002049 79 0 0.0 0.9 0.00 0.00 0.00 46 1011.4
20260510001553 80 0 0.0 0.9 0.00 0.00 0.00 44 1011.4
20260510001050 81 0 0.0 0.9 0.00 0.00 0.00 41 1011.3
20260510000551 83 0 0.0 0.9 0.00 0.00 0.00 39 1011.3
20260510000121 84 120 0.0 1.7 0.00 0.00 0.00 37 1011.3
20260509235550 84 0 0.0 1.7 0.00 0.00 0.00 38 1011.3
20260509235050 84 120 0.0 1.7 0.00 0.00 0.00 38 1011.3
20260509234604 84 120 0.0 1.7 0.00 0.00 0.00 37 1011.2
20260509234056 84 0 0.0 0.9 0.00 0.00 0.00 39 1011.1
20260509233550 83 0 0.0 1.7 0.00 0.00 0.00 33 1011.2
20260509233059 84 0 0.0 1.7 0.00 0.00 0.00 36 1011.2
20260509232550 84 106 0.0 1.7 0.00 0.00 0.00 38 1011.2
20260509232051 84 97 0.0 1.7 0.00 0.00 0.00 37 1011.2
20260509231555 84 152 0.9 1.7 0.00 0.00 0.00 36 1011.1
20260509231050 85 84 0.0 1.7 0.00 0.00 0.00 36 1011.1
20260509230549 85 90 0.9 1.7 0.00 0.00 0.00 38 1011.0
20260509230105 84 0 0.0 1.7 0.00 0.00 0.00 36 1010.9
20260509225550 85 134 0.9 1.7 0.00 0.00 0.00 36 1010.9
20260509225050 85 144 0.0 2.6 0.00 0.00 0.00 36 1010.9
20260509224609 85 197 0.9 2.6 0.00 0.00 0.00 35 1010.8
20260509224053 86 117 0.0 2.6 0.00 0.00 0.00 36 1010.8
20260509223551 85 0 0.9 2.6 0.00 0.00 0.00 37 1010.8
20260509223107 85 100 0.0 3.5 0.00 0.00 0.00 38 1010.8
20260509222552 85 107 1.7 4.3 0.00 0.00 0.00 39 1010.9
20260509222050 84 127 0.9 4.3 0.00 0.00 0.00 39 1010.9
20260509221612 85 170 0.9 4.3 0.00 0.00 0.00 36 1011.0
20260509221052 85 68 0.0 2.6 0.00 0.00 0.00 36 1011.0
20260509220553 84 0 0.9 3.5 0.00 0.00 0.00 34 1011.0
20260509220105 85 154 0.9 3.5 0.00 0.00 0.00 38 1010.9
20260509215550 85 143 0.9 3.5 0.00 0.00 0.00 36 1011.0
20260509215051 85 120 0.9 2.6 0.00 0.00 0.00 37 1010.9
20260509214553 85 73 0.9 2.6 0.00 0.00 0.00 39 1010.9
20260509214052 84 127 1.7 3.5 0.00 0.00 0.00 34 1011.0
20260509213550 84 91 0.9 4.3 0.00 0.00 0.00 38 1011.0
20260509213057 84 126 0.9 4.3 0.00 0.00 0.00 39 1011.0
20260509212549 84 181 0.9 3.5 0.00 0.00 0.00 38 1011.1
20260509212053 84 195 0.9 3.5 0.00 0.00 0.00 36 1011.0
20260509211553 85 163 0.9 3.5 0.00 0.00 0.00 37 1011.0
20260509211052 85 180 0.9 2.6 0.00 0.00 0.00 35 1011.2
20260509210550 85 90 0.9 4.3 0.00 0.00 0.00 38 1011.2
20260509210100 84 135 0.9 4.3 0.00 0.00 0.00 37 1011.1
20260509205552 84 120 1.7 4.3 0.00 0.00 0.00 40 1011.1
20260509205050 84 207 0.9 4.3 0.00 0.00 0.00 37 1011.1
20260509204600 85 153 0.9 4.3 0.00 0.00 0.00 44 1011.0
20260509204052 84 122 0.9 4.3 0.00 0.00 0.00 39 1011.1
20260509203551 83 163 1.7 4.3 0.00 0.00 0.00 41 1011.0
20260509203055 84 216 0.9 4.3 0.00 0.00 0.00 40 1011.1
20260509202552 84 117 0.9 4.3 0.00 0.00 0.00 39 1011.2
20260509202053 85 84 0.9 2.6 0.00 0.00 0.00 40 1011.1
20260509201551 84 129 0.9 6.1 0.00 0.00 0.00 37 1011.1
20260509201051 84 114 1.7 6.1 0.00 0.00 0.00 40 1011.2
20260509200551 84 82 1.7 6.1 0.00 0.00 0.00 45 1011.2
20260509200104 83 90 0.9 3.5 0.00 0.00 0.00 42 1011.2
20260509195550 84 139 1.7 4.3 0.00 0.00 0.00 37 1011.4
20260509195049 83 153 0.9 4.3 0.00 0.00 0.00 40 1011.3
20260509194555 83 101 1.7 5.2 0.00 0.00 0.00 40 1011.4
20260509194051 84 204 0.9 6.1 0.00 0.00 0.00 46 1011.3
20260509193554 83 70 2.6 6.1 0.00 0.00 0.00 47 1011.4
20260509193101 84 165 0.9 5.2 0.00 0.00 0.00 46 1011.4
20260509192550 84 207 0.9 5.2 0.00 0.00 0.00 44 1011.4
20260509192052 83 92 2.6 4.3 0.00 0.00 0.00 45 1011.5
20260509191613 84 199 0.9 3.5 0.00 0.00 0.00 42 1011.5
20260509191050 84 86 0.9 3.5 0.00 0.00 0.00 48 1011.5
20260509190550 84 77 0.9 2.6 0.00 0.00 0.00 43 1011.5
20260509190112 84 164 0.9 4.3 0.00 0.00 0.00 45 1011.5
20260509185550 83 103 2.6 4.3 0.00 0.00 0.00 41 1011.6
20260509185050 84 118 1.7 3.5 0.00 0.00 0.00 41 1011.5
20260509184555 84 0 0.0 2.6 0.00 0.00 0.00 52 1011.5
20260509184051 84 78 0.9 4.3 0.00 0.00 0.00 49 1011.7
20260509183551 83 95 1.7 4.3 0.00 0.00 0.00 51 1011.8
20260509183105 83 115 0.9 4.3 0.00 0.00 0.00 47 1011.8
20260509182551 84 71 0.9 3.5 0.00 0.00 0.00 52 1011.8
20260509182050 84 126 0.9 3.5 0.00 0.00 0.00 47 1011.8
20260509181553 83 82 0.9 3.5 0.00 0.00 0.00 51 1011.9
20260509181051 84 39 0.9 2.6 0.00 0.00 0.00 50 1012.0
20260509180550 84 96 0.9 2.6 0.00 0.00 0.00 52 1012.0
20260509180057 83 93 0.9 5.2 0.00 0.00 0.00 56 1012.1
20260509175550 83 101 1.7 5.2 0.00 0.00 0.00 57 1012.1
20260509175050 82 48 1.7 4.3 0.00 0.00 0.00 54 1012.0
20260509174554 82 83 0.9 3.5 0.00 0.00 0.00 49 1012.0
20260509174048 82 120 0.9 3.5 0.00 0.00 0.00 52 1012.1
20260509173551 82 78 0.0 3.5 0.00 0.00 0.00 52 1012.0
20260509173101 82 150 0.9 3.5 0.00 0.00 0.00 49 1012.0
20260509172554 82 161 0.9 2.6 0.00 0.00 0.00 56 1012.0
20260509172052 82 122 0.9 2.6 0.00 0.00 0.00 52 1012.0
20260509171606 82 120 0.9 4.3 0.00 0.00 0.00 56 1012.0
20260509171051 81 117 1.7 4.3 0.00 0.00 0.00 54 1012.0
20260509170551 81 117 1.7 4.3 0.00 0.00 0.00 57 1012.1
20260509170057 81 189 1.7 3.5 0.00 0.00 0.00 58 1012.1
20260509165552 81 63 0.9 3.5 0.00 0.00 0.00 54 1012.2
20260509165051 82 116 0.9 3.5 0.00 0.00 0.00 54 1012.2
20260509164554 81 0 0.9 3.5 0.00 0.00 0.00 59 1012.2
20260509164055 81 70 1.7 3.5 0.00 0.00 0.00 59 1012.1
20260509163553 80 102 0.9 3.5 0.00 0.00 0.00 59 1012.1
20260509163101 80 130 0.9 4.3 0.00 0.00 0.00 60 1012.2
20260509162553 80 101 0.9 4.3 0.00 0.00 0.00 60 1012.1
20260509162051 80 205 0.9 4.3 0.00 0.00 0.00 58 1012.0
20260509161555 80 72 0.9 4.3 0.00 0.00 0.00 59 1012.0
20260509161052 79 124 0.9 4.3 0.00 0.00 0.00 61 1012.0
20260509160553 79 153 1.7 4.3 0.00 0.00 0.00 60 1012.0
20260509160050 78 214 0.0 3.5 0.00 0.00 0.00 59 1011.9
20260509155552 78 154 0.9 3.5 0.00 0.00 0.00 62 1012.0
20260509155052 78 144 1.7 5.2 0.00 0.00 0.00 59 1011.9
20260509154558 78 173 0.9 5.2 0.00 0.00 0.00 59 1011.7
20260509154053 78 172 1.7 3.5 0.00 0.00 0.00 57 1011.7
20260509153551 79 117 0.9 3.5 0.00 0.00 0.00 62 1011.7
20260509153058 79 121 0.0 2.6 0.00 0.00 0.00 63 1011.6
20260509152551 78 79 0.9 3.5 0.00 0.00 0.00 63 1011.6
20260509152052 78 114 0.9 3.5 0.00 0.00 0.00 63 1011.6
20260509151601 78 186 0.9 3.5 0.00 0.00 0.00 64 1011.6
20260509151050 78 82 0.9 3.5 0.00 0.00 0.00 66 1011.7
20260509150552 77 98 0.9 3.5 0.00 0.00 0.00 64 1011.7
20260509150055 77 0 0.9 4.3 0.00 0.00 0.00 67 1011.7
20260509145552 76 143 0.9 4.3 0.00 0.00 0.00 67 1011.8
20260509145052 76 88 0.9 4.3 0.00 0.00 0.00 69 1011.8
20260509144556 75 160 1.7 4.3 0.00 0.00 0.00 70 1011.8
20260509144051 75 103 1.7 4.3 0.00 0.00 0.00 68 1011.8
20260509143553 75 165 0.9 2.6 0.00 0.00 0.00 71 1011.8
20260509143057 75 107 0.9 4.3 0.00 0.00 0.00 71 1011.9
20260509142551 74 147 0.0 4.3 0.00 0.00 0.00 73 1011.9
20260509142052 73 134 1.7 4.3 0.00 0.00 0.00 71 1011.9
20260509141553 73 108 1.7 4.3 0.00 0.00 0.00 71 1011.8
20260509141052 73 96 0.9 4.3 0.00 0.00 0.00 76 1011.7
20260509140552 73 88 1.7 4.3 0.00 0.00 0.00 72 1011.6
20260509140132 73 96 0.9 3.5 0.00 0.00 0.00 76 1011.6
20260509135550 72 118 0.9 3.5 0.00 0.00 0.00 74 1011.6
20260509135050 72 111 0.9 5.2 0.00 0.00 0.00 77 1011.6
20260509134606 71 138 0.0 5.2 0.00 0.00 0.00 79 1011.7
20260509134051 71 80 0.9 5.2 0.00 0.00 0.00 75 1011.7
20260509133551 71 153 0.9 3.5 0.00 0.00 0.00 77 1011.6
20260509133058 71 94 0.9 2.6 0.00 0.00 0.00 78 1011.7
20260509132552 70 131 0.9 3.5 0.00 0.00 0.00 80 1011.6
20260509132054 69 0 0.9 3.5 0.00 0.00 0.00 80 1011.6
20260509131616 69 0 0.9 2.6 0.00 0.00 0.00 80 1011.6
20260509131051 69 98 0.0 1.7 0.00 0.00 0.00 82 1011.5
20260509130550 68 0 0.0 1.7 0.00 0.00 0.00 85 1011.5
20260509125551 66 75 0.0 0.9 0.00 0.00 0.00 87 1011.5
20260509125055 65 73 0.0 1.7 0.00 0.00 0.00 89 1011.5
20260509124553 63 73 0.0 1.7 0.00 0.00 0.00 88 1011.4
20260509124050 63 73 0.9 1.7 0.00 0.00 0.00 90 1011.4
20260509123552 61 0 0.0 0.9 0.00 0.00 0.00 92 1011.4
20260509123102 60 84 0.0 0.9 0.00 0.00 0.00 94 1011.4
20260509122552 59 84 0.0 1.7 0.00 0.00 0.00 95 1011.3
20260509122051 58 0 0.0 2.6 0.00 0.00 0.00 95 1011.2
20260509121552 58 0 0.0 3.5 0.00 0.00 0.00 95 1011.2
20260509121052 58 72 0.0 3.5 0.00 0.00 0.00 95 1011.2
20260509120554 58 70 0.9 2.6 0.00 0.00 0.00 95 1011.2
20260509120058 57 0 0.0 2.6 0.00 0.00 0.00 95 1011.2
20260509115551 57 77 0.9 2.6 0.00 0.00 0.00 95 1011.2
20260509115051 57 77 0.0 4.3 0.00 0.00 0.00 95 1011.2
20260509114608 57 43 0.9 4.3 0.00 0.00 0.00 95 1011.1
20260509114051 57 71 0.9 5.2 0.00 0.00 0.00 95 1011.1
20260509113549 57 73 1.7 6.1 0.00 0.00 0.00 95 1011.0
20260509113055 57 307 0.9 6.1 0.00 0.00 0.00 96 1010.9
20260509112550 57 110 1.7 5.2 0.00 0.00 0.00 96 1010.9
20260509112050 56 20 0.0 4.3 0.00 0.00 0.00 96 1010.8
20260509111555 56 55 0.9 3.5 0.00 0.00 0.00 96 1010.8
20260509111050 56 86 0.9 2.6 0.00 0.00 0.00 96 1010.6
20260509110552 56 45 0.9 2.6 0.00 0.00 0.00 96 1010.6
20260509110104 56 47 0.0 1.7 0.00 0.00 0.00 96 1010.5
20260509105551 56 60 0.0 1.7 0.00 0.00 0.00 96 1010.3
20260509105053 56 63 0.0 1.7 0.00 0.00 0.00 96 1010.3
20260509104558 56 66 0.0 1.7 0.00 0.00 0.00 96 1010.4
20260509104051 56 69 0.0 1.7 0.00 0.00 0.00 96 1010.3
20260509103552 56 68 0.0 1.7 0.00 0.00 0.00 96 1010.3
20260509103054 56 54 0.9 2.6 0.00 0.00 0.00 96 1010.3
20260509102551 56 52 0.9 2.6 0.00 0.00 0.00 96 1010.3
20260509102052 56 40 0.0 1.7 0.00 0.00 0.00 96 1010.5
20260509101554 56 82 0.0 2.6 0.00 0.00 0.00 96 1010.4
20260509101055 56 0 0.0 2.6 0.00 0.00 0.00 97 1010.4
20260509100552 55 45 0.9 2.6 0.00 0.00 0.00 97 1010.5
20260509100054 55 84 0.9 2.6 0.00 0.00 0.00 97 1010.6
20260509095555 55 37 0.0 1.7 0.00 0.00 0.00 97 1010.6
20260509095052 55 91 0.0 1.7 0.00 0.00 0.00 97 1010.7
20260509094610 55 0 0.0 1.7 0.00 0.00 0.00 96 1010.9
20260509094051 55 72 0.0 0.9 0.00 0.00 0.00 96 1010.8
20260509093551 55 83 0.0 0.9 0.00 0.00 0.00 96 1010.9
20260509093053 54 0 0.0 0.0 0.00 0.00 0.00 96 1010.8
20260509092555 55 0 0.0 0.0 0.00 0.00 0.00 96 1010.9
20260509092051 55 0 0.0 0.0 0.00 0.00 0.00 95 1010.6
20260509091556 55 0 0.0 0.0 0.00 0.00 0.00 95 1010.6
20260509091054 55 0 0.0 0.0 0.00 0.00 0.00 95 1010.5
20260509090552 55 0 0.0 0.0 0.00 0.00 0.00 94 1010.4
20260509085552 55 0 0.0 0.0 0.00 0.00 0.00 94 1010.5
20260509085050 56 0 0.0 0.0 0.00 0.00 0.00 94 1010.5
20260509084559 56 0 0.0 0.0 0.00 0.00 0.00 94 1010.7
20260509084050 56 0 0.0 0.0 0.00 0.00 0.00 93 1010.6
20260509083550 56 0 0.0 0.0 0.00 0.00 0.00 93 1010.6
20260509083054 56 0 0.0 0.0 0.00 0.00 0.00 92 1010.6
20260509082550 57 0 0.0 0.9 0.00 0.00 0.00 92 1010.5
20260509082051 57 0 0.0 0.9 0.00 0.00 0.00 92 1010.5
20260509081555 57 0 0.0 0.9 0.00 0.00 0.00 91 1010.5
20260509081051 57 0 0.0 1.7 0.00 0.00 0.00 91 1010.3
20260509080552 57 0 0.0 2.6 0.00 0.00 0.00 91 1010.3
20260509080052 58 0 0.0 2.6 0.00 0.00 0.00 91 1010.3
20260509075550 57 70 0.9 2.6 0.00 0.00 0.00 91 1010.1
20260509075050 58 44 0.9 2.6 0.00 0.00 0.00 91 1010.3
20260509074552 58 49 0.0 3.5 0.00 0.00 0.00 91 1010.3
20260509074052 58 56 0.9 3.5 0.00 0.00 0.00 90 1010.3
20260509073552 58 50 0.0 2.6 0.00 0.00 0.00 90 1010.3
20260509073050 58 15 0.0 1.7 0.00 0.00 0.00 90 1010.2
20260509072548 58 49 0.0 1.7 0.00 0.00 0.00 90 1010.0
20260509072051 58 0 0.0 2.6 0.00 0.00 0.00 90 1009.9
20260509071616 58 75 0.0 2.6 0.00 0.00 0.00 90 1010.0
20260509071052 58 0 0.0 2.6 0.00 0.00 0.00 90 1010.3
20260509070552 58 0 0.0 0.9 0.00 0.00 0.00 90 1010.3
20260509070106 58 0 0.0 0.9 0.00 0.00 0.00 89 1010.4
20260509065551 58 0 0.0 0.9 0.00 0.00 0.00 89 1010.4
20260509065051 58 0 0.0 0.9 0.00 0.00 0.00 89 1010.6
20260509064556 58 0 0.0 0.9 0.00 0.00 0.00 88 1010.7
20260509064050 59 0 0.0 0.9 0.00 0.00 0.00 88 1010.7
20260509063551 59 0 0.0 2.6 0.00 0.00 0.00 88 1010.3
20260509063055 59 34 0.0 2.6 0.00 0.00 0.00 88 1010.5
20260509062551 59 41 0.9 2.6 0.00 0.00 0.00 87 1010.7
20260509062051 59 51 0.9 4.3 0.00 0.00 0.00 87 1010.9
20260509061555 59 325 0.9 4.3 0.00 0.00 0.00 87 1011.0
20260509061048 59 32 0.9 3.5 0.00 0.00 0.00 87 1010.6
20260509060549 59 17 0.9 3.5 0.00 0.00 0.00 87 1011.1
20260509055550 59 66 0.9 4.3 0.00 0.00 0.00 87 1010.9
20260509055053 59 27 1.7 4.3 0.00 0.00 0.00 86 1010.9
20260509054613 59 50 0.9 4.3 0.00 0.00 0.00 86 1011.1
20260509054050 59 93 0.9 6.1 0.00 0.00 0.00 86 1011.2
20260509053549 60 71 1.7 6.1 0.00 0.00 0.00 85 1011.1
20260509053144 60 30 1.7 3.5 0.00 0.00 0.00 85 1011.3
20260509052552 60 11 0.0 3.5 0.00 0.00 0.00 85 1011.7
20260509052052 60 321 1.7 3.5 0.00 0.00 0.00 85 1011.5
20260509051554 60 72 0.9 2.6 0.00 0.00 0.00 85 1011.8
20260509051049 60 89 0.9 3.5 0.00 0.00 0.00 85 1011.7
20260509050550 60 65 0.9 3.5 0.00 0.00 0.00 84 1011.7
20260509050059 60 38 0.9 4.3 0.00 0.00 0.00 84 1011.6
20260509045550 60 71 0.9 4.3 0.00 0.00 0.00 84 1011.8
20260509045050 60 77 0.9 3.5 0.00 0.00 0.00 84 1011.9
20260509044557 60 1 0.9 4.3 0.00 0.00 0.00 84 1011.9
20260509044050 60 72 1.7 4.3 0.00 0.00 0.00 84 1012.0
20260509043549 60 48 0.9 2.6 0.00 0.00 0.00 84 1012.0
20260509043057 60 44 0.0 2.6 0.00 0.00 0.00 83 1012.1
20260509042549 60 71 0.0 3.5 0.00 0.00 0.00 83 1012.1
20260509042050 60 29 0.0 4.3 0.00 0.00 0.00 82 1012.2
20260509041558 60 47 0.0 4.3 0.00 0.00 0.00 82 1012.1